星链-4615 (STARLINK-4615 )

导读 | 星芒AI

STARLINK-4615 是 SpaceX Starlink 卫星互联网项目中的一颗低轨卫星,属于第 21 批部署的星链卫星之一。该卫星于 2022 年发射,运行在约 550 公里的轨道高度,旨在为全球用户提供高速互联网服务。作为星链星座的一部分,STARLINK-4615 采用先进通信技术,支持宽带连接,尤其服务于传统网络难以覆盖的偏远地区。其设计注重可操作性和可持续性,具备自动避碰功能,以减少太空碎片风险。

基本信息
目录编号:
53620
目录名称:
STARLINK-4615
国际标识:
2022-104AJ
轨道中心:
EARTH
卫星名称:
星链-4615
卫星全名:
星链-4615 (STARLINK-4615 )
卫星状态:
在轨 (已飞行1211 天)
发射日期:
2022-08-28 UTC
国别 :
美国 (US)
星等 :
--
轨道信息
数据来源 国际轨道数据
星历时间: 2025-12-21T08:55:21+0800
7小时前
查看轨道信息
半长轴: 6917.648km
偏心率: 0.0000908
轨道倾角: 53.215°
近地点辐角 107.499°
升交点赤经 227.037°
平近点角 252.611°
近地点: 538.882km
远地点: 540.14km
周期: 95.433分钟
每日圈数: 15.089162
详细信息
固有亮度:
5
最大亮度:
2.5
卫星平台:
Starlink v1.5
覆盖范围:
全球
运营商:
太空探索技术公司
运营商所在国:
美国
制造商(研发单位):
太空探索技术公司
制造商所在国:
美国
使用方式:
暂无
卫星简介
星链(Starlink)计划是由太空探索技术公司(SpaceX)提出的一个巨型低轨卫星互联网星座项目,计划在2019年至2024年间在太空搭建由约1.2万颗卫星组成的“星链”网络,其中1584颗将部署在地球上空550千米处的近地轨道,并从2020年开始工作。该卫星仍在工作。
2D轨道图
3D轨道图
轨道高度分析图
轨道倾角分析图
轨道综合分析图
查看轨道综合分析图